[[{"header":{"parameterUnit":"m.s-1","parameterCategory":1,"la1":30.2991,"la2":30.254,"lo1":-89.0895,"lo2":-89.0444,"dy":0.0017,"dx":0.0017,"nx":28,"ny":28,"refTime":"2025-09-03T21:00:00:Z","depth":0,"parameterNumber":2,"parameterNumberName":"U-component_of_WINDS"},"data":[0,0,0,0,0,0,0,0,0,0,0,0,0,0,0,0,0,0,0,0,0,0,0,0,0,0,0,0,0,0,0,0,0,0,0,0,0,0,0,0,0,0,0,0,0,0,0,0,0,0,0,0,0,0,0,0,0,0,0.0579,0.0579,0,0.0607,0.0607,0.0607,0.0661,0.0662,0.0663,0.0664,0.069,0.069,0.0689,0,0,0,0,0,0,0,0,0,0,0,0,0,0.0569,0.0569,0.0578,0.0579,0.0579,0.0607,0.0607,0.0607,0.0661,0.0662,0.0663,0.0664,0.069,0.069,0.0689,0,0,0,0,0,0,0,0,0,0,0,0,0,0.0582,0.0568,0.0578,0.0609,0.0612,0.0606,0.0607,0.0607,0.066,0.0662,0.0663,0.0665,0.069,0.069,0.0689,0.0655,0,0,0.0688,0.0688,0,0,0,0,0,0,0,0,0.0581,0.0583,0.0604,0.0607,0.061,0.0632,0.0613,0.0623,0.066,0.0642,0.0664,0.0666,0.0669,0.0671,0.0672,0.0656,0.0658,0.0688,0.0688,0.0688,0.0687,0,0,0,0,0,0,0,0.058,0.0582,0.059,0.0605,0.0608,0.0621,0.0624,0.0615,0.0646,0.0644,0.0648,0.065,0.0671,0.0673,0.0673,0.0658,0.0688,0.0688,0.0687,0.0687,0.0615,0.0613,0,0,0,0,0,0,0.0575,0.0581,0.0589,0.059,0.06,0.062,0.0624,0.0623,0.0647,0.0652,0.0649,0.0653,0.0673,0.0674,0.0674,0.0636,0.0688,0.0687,0.0687,0.0617,0.0615,0.0613,0,0,0,0,0,0,0.0575,0.0576,0.0588,0.0587,0.0589,0.0618,0.0617,0.0623,0.0625,0.0651,0.0656,0.0645,0.0674,0.0675,0.066,0.0637,0.0687,0.0687,0.0618,0.0616,0.0614,0.0558,0,0,0,0,0,0,0.0574,0.0575,0.0563,0.0586,0.0589,0.0573,0.0616,0.0622,0.0624,0.0629,0.0648,0.0653,0.0675,0.066,0.0659,0.0638,0.0686,0.0621,0.0617,0.0614,0.0562,0.0554,0.0547,0,0,0,0,0,0.0574,0.0546,0.0562,0.0563,0.0574,0.0571,0.0573,0.06,0.0622,0.061,0.0626,0.0652,0.064,0.0658,0.0658,0.0635,0.0622,0.0618,0.0615,0.0565,0.0555,0.0547,0,0,0,0,0,0,0.0518,0.0549,0.0568,0.0546,0.0556,0.0581,0.0566,0.0589,0.0592,0.0596,0.0629,0.0633,0.0613,0.0623,0.0642,0.0603,0.0635,0.0631,0.0598,0.0588,0.0581,0.0579,0.0686,0,0,0,0,0,0.0504,0.05,0.0526,0.0505,0.0509,0.0536,0.0536,0.0556,0.0567,0.0571,0.0587,0.0595,0.0594,0.0592,0.0592,0.0564,0.0568,0.0548,0.0541,0.0534,0.053,0.0516,0.0507,0.06,0.06,0.06,0,0,0.0473,0.049,0.0485,0.0494,0.0504,0.0498,0.0539,0.0531,0.0527,0.057,0.0556,0.0568,0.058,0.0558,0.0549,0.0565,0.0506,0.053,0.0524,0.0524,0.0511,0.0502,0.0494,0.0598,0.0598,0.0599,0,0,0.0414,0.0427,0.041,0.0419,0.0434,0.0452,0.0448,0.0469,0.0479,0.0466,0.0498,0.0493,0.0489,0.0496,0.05,0.0444,0.0467,0.0443,0.0403,0.0388,0.0381,0.0375,0.0354,0.0346,0.0439,0.0438,0.0438,0,0.0374,0.0368,0.0398,0.0388,0.0391,0.043,0.0413,0.042,0.0433,0.0434,0.0453,0.0449,0.046,0.044,0.0426,0.0428,0.0423,0.044,0.038,0.0374,0.0368,0.0349,0.0341,0.0435,0.0436,0.0436,0.0436,0,0.0317,0.0312,0.0296,0.0309,0.031,0.0297,0.0324,0.0322,0.0342,0.0358,0.0344,0.0359,0.0362,0.0359,0.0378,0.0341,0.0351,0.0374,0.0407,0.0356,0.0338,0.0331,0.0431,0.0432,0.0433,0.0434,0,0,0.0223,0.0254,0.0248,0.0254,0.0273,0.0269,0.0257,0.0261,0.0258,0.0266,0.0256,0.0252,0.0274,0.0277,0.0297,0.0284,0.0238,0.0309,0.031,0.0295,0.0198,0.018,0.0171,0.0254,0.0253,0.0252,0.0197,0,0.0168,0.015,0.0178,0.0153,0.0148,0.0185,0.0175,0.0185,0.0199,0.0197,0.0213,0.0209,0.0239,0.0241,0.023,0.0246,0.0219,0.0251,0.0244,0.0244,0.0239,0.0162,0.0142,0.0089,0.019,0.0189,0.0188,0,0.0102,0.0107,0.0082,0.0103,0.0102,0.0092,0.0098,0.0095,0.0107,0.0118,0.0122,0.0147,0.0135,0.0167,0.0152,0.0172,0.0171,0.0179,0.0178,0.0177,0.0212,0.0158,0.0073,0.0065,0.0178,0.0178,0.0179,0,0.0035,0.0036,0.0021,0.0026,0.0049,0.0041,0.0051,0.0065,0.0065,0.007,0.007,0.0073,0.0075,0.0076,0.01,0.0121,0.0081,0.0115,0.009,0.0089,0.0079,0.0079,-0.0009,0.0079,0.0079,0.008,0.008,0,-0.003,-0.0047,-0.0008,-0.0018,-0.0036,-0.0004,-0.0024,-0.0011,0.0001,-0.0006,0.0027,0.0019,0.0052,0.0048,0.0067,0.0051,0.0051,0.0059,0.0064,0.0056,0.0055,0.0055,0.0059,0.0077,0.0078,0.0078,0.0079,0,-0.0108,-0.0082,-0.0096,-0.0072,-0.0066,-0.0081,-0.0061,-0.0069,-0.0052,-0.0061,-0.0061,-0.0035,-0.0038,-0.0013,-0.0012,0.0001,-0.0025,-0.0013,-0.0029,-0.0026,-0.0053,-0.0051,-0.0144,-0.0155,-0.006,-0.006,-0.0061,0,-0.0151,-0.0163,-0.014,-0.0142,-0.0134,-0.0137,-0.0136,-0.0106,-0.0106,-0.0094,-0.0104,-0.0104,-0.0102,-0.0109,-0.0091,-0.009,-0.0078,-0.0111,-0.0078,-0.0086,-0.008,-0.008,-0.0081,-0.0118,-0.0119,-0.012,-0.0121,0,-0.0231,-0.0218,-0.0217,-0.0212,-0.0212,-0.0207,-0.02,-0.0203,-0.017,-0.0173,-0.0175,-0.0174,-0.0172,-0.0173,-0.0168,-0.016,-0.0136,-0.0131,-0.0137,-0.0147,-0.0155,-0.0152,-0.0049,-0.013,-0.0129,-0.0128,-0.0128,-0.0127,-0.0294,-0.0303,-0.0288,-0.0288,-0.028,-0.0274,-0.028,-0.0263,-0.0264,-0.026,-0.0242,-0.0248,-0.0236,-0.0227,-0.0221,-0.0225,-0.021,-0.0218,-0.0221,-0.0224,-0.0229,-0.0154,-0.0224,-0.0224,-0.0224,-0.0223,-0.0223,0,-0.0373,-0.0361,-0.0362,-0.0352,-0.0353,-0.0329,-0.0319,-0.0322,-0.0327,-0.0317,-0.0316,-0.032,-0.032,-0.0302,-0.03,-0.0308,-0.0297,-0.0308,-0.0308,-0.0307,-0.0242,-0.0238,-0.0317,-0.0317,-0.0317,-0.0317,-0.0317,-0.0317,-0.0414,-0.0428,-0.0413,-0.0423,-0.0412,-0.0416,-0.0413,-0.0408,-0.04,-0.0405,-0.0405,-0.0392,-0.0379,-0.0377,-0.0377,-0.0371,-0.0373,-0.0389,-0.038,-0.032,-0.0311,-0.0302,-0.0298,-0.0389,-0.0389,-0.0443,-0.0444,-0.0444]},{"header":{"parameterUnit":"m.s-1","parameterCategory":1,"la1":30.2991,"la2":30.254,"lo1":-89.0895,"lo2":-89.0444,"dy":0.0017,"dx":0.0017,"nx":28,"ny":28,"refTime":"2025-09-03T21:00:00:Z","depth":0,"parameterNumber":3,"parameterNumberName":"V-component_of_WINDS"},"data":[0,0,0,0,0,0,0,0,0,0,0,0,0,0,0,0,0,0,0,0,0,0,0,0,0,0,0,0,0,0,0,0,0,0,0,0,0,0,0,0,0,0,0,0,0,0,0,0,0,0,0,0,0,0,0,0,0,0,3.0471,3.0472,0,3.0565,3.0566,3.0567,3.055,3.0548,3.0546,3.0545,3.0637,3.0641,3.0645,0,0,0,0,0,0,0,0,0,0,0,0,0,3.027,3.0274,3.0471,3.0472,3.0474,3.0565,3.0566,3.0568,3.055,3.0548,3.0546,3.0544,3.0636,3.064,3.0645,0,0,0,0,0,0,0,0,0,0,0,0,0,3.036,3.0275,3.0471,3.0476,3.0477,3.0565,3.0566,3.0568,3.055,3.0548,3.0545,3.0543,3.0634,3.064,3.0646,3.0733,0,0,3.0664,3.0667,0,0,0,0,0,0,0,0,3.0355,3.0367,3.0474,3.0476,3.0477,3.0543,3.0529,3.0623,3.0551,3.0523,3.0545,3.0542,3.0608,3.0616,3.0639,3.0738,3.0742,3.0665,3.0669,3.0671,3.0673,0,0,0,0,0,0,0,3.0349,3.0363,3.0508,3.0475,3.0478,3.0471,3.0481,3.0547,3.0578,3.0525,3.0524,3.0535,3.0608,3.0633,3.0641,3.0743,3.0665,3.067,3.0674,3.0676,3.0913,3.0916,0,0,0,0,0,0,3.0341,3.0358,3.0505,3.0511,3.0409,3.0477,3.0488,3.0525,3.0577,3.0583,3.0537,3.0534,3.0624,3.0634,3.0644,3.0746,3.0671,3.0677,3.068,3.091,3.0914,3.0917,0,0,0,0,0,0,3.0337,3.0355,3.0501,3.0434,3.0452,3.0483,3.0524,3.0528,3.0553,3.0587,3.0592,3.0558,3.0622,3.0635,3.071,3.0749,3.0679,3.0685,3.0907,3.0911,3.0915,3.0954,0,0,0,0,0,0,3.0332,3.0353,3.0389,3.0435,3.0456,3.0569,3.0527,3.0531,3.0564,3.056,3.0607,3.0612,3.0621,3.0701,3.0716,3.0756,3.069,3.0904,3.0909,3.0914,3.0949,3.0959,3.0967,0,0,0,0,0,3.0324,3.0396,3.0391,3.0409,3.0501,3.0571,3.0583,3.0593,3.0567,3.0601,3.0622,3.0611,3.0743,3.0709,3.0726,3.0768,3.0901,3.0908,3.0913,3.0946,3.0957,3.0967,0,0,0,0,0,0,3.0353,3.0403,3.0397,3.0486,3.0525,3.0568,3.0612,3.0606,3.0651,3.0646,3.0655,3.0666,3.0741,3.0763,3.0724,3.0853,3.0818,3.0828,3.0837,3.0848,3.0857,3.0849,3.0695,0,0,0,0,0,3.037,3.0424,3.0464,3.0539,3.0558,3.0582,3.0612,3.0617,3.0656,3.0672,3.0699,3.0736,3.0786,3.0818,3.0866,3.0952,3.096,3.099,3.0998,3.1005,3.1013,3.1056,3.1069,3.0936,3.0936,3.0936,0,0,3.0405,3.0439,3.0473,3.0545,3.0575,3.0628,3.0595,3.0654,3.0693,3.0681,3.0753,3.0773,3.0815,3.0895,3.0932,3.0915,3.1051,3.1013,3.1019,3.1023,3.1064,3.1076,3.1087,3.094,3.094,3.0939,0,0,3.0496,3.0529,3.0593,3.0623,3.0669,3.0683,3.0699,3.0742,3.0756,3.0828,3.0819,3.0864,3.095,3.0979,3.1006,3.1103,3.1093,3.1119,3.1164,3.1206,3.1217,3.1226,3.1258,3.1269,3.1126,3.1127,3.1127,0,3.0534,3.0616,3.0626,3.0685,3.0715,3.0707,3.0769,3.0798,3.0857,3.0877,3.0858,3.0963,3.0991,3.1076,3.1099,3.1122,3.1137,3.1113,3.1215,3.1224,3.1233,3.1263,3.1275,3.1129,3.1129,3.1129,3.1128,0,3.0658,3.0714,3.076,3.0817,3.0852,3.0913,3.093,3.0965,3.0965,3.098,3.1052,3.1085,3.1137,3.1158,3.1159,3.1242,3.123,3.1213,3.1177,3.1248,3.1276,3.1288,3.1133,3.1132,3.1131,3.113,0,0,3.0771,3.0831,3.0847,3.0871,3.0919,3.0962,3.102,3.1072,3.11,3.114,3.1187,3.1259,3.1242,3.1271,3.1275,3.1313,3.1383,3.129,3.1291,3.1304,3.1472,3.1483,3.1497,3.1377,3.138,3.1381,3.1468,0,3.0864,3.0969,3.0978,3.1071,3.1121,3.1112,3.1162,3.1195,3.1211,3.1254,3.127,3.1319,3.1295,3.1312,3.1349,3.1367,3.1417,3.1361,3.1418,3.142,3.1406,3.1513,3.1526,3.1606,3.1479,3.1481,3.1483,0,3.0988,3.1031,3.1129,3.1166,3.1188,3.1233,3.1279,3.1321,3.1357,3.1366,3.1397,3.1395,3.1452,3.1415,3.1491,3.1453,3.1477,3.1489,3.1492,3.1496,3.1455,3.1517,3.1632,3.1643,3.1501,3.15,3.1498,0,3.1057,3.1139,3.1207,3.1228,3.1275,3.1306,3.1327,3.1361,3.139,3.143,3.1448,3.1494,3.1518,3.1552,3.1561,3.1534,3.1636,3.1601,3.1642,3.1642,3.1664,3.1662,3.1781,3.1682,3.1682,3.1682,3.1682,0,3.1159,3.1219,3.1238,3.128,3.1345,3.1354,3.1417,3.1435,3.1465,3.1508,3.1503,3.1543,3.1553,3.1595,3.1602,3.1662,3.1674,3.168,3.1681,3.168,3.1678,3.1694,3.1688,3.1685,3.1684,3.1684,3.1683,0,3.1247,3.1264,3.1336,3.1374,3.1384,3.143,3.1461,3.1499,3.1513,3.1567,3.158,3.1601,3.1649,3.1662,3.1719,3.1724,3.1794,3.1791,3.1782,3.1781,3.182,3.1815,3.1952,3.1969,3.1861,3.1862,3.1863,0,3.1311,3.1356,3.1397,3.1426,3.1448,3.1494,3.1523,3.1532,3.1563,3.1605,3.1638,3.1685,3.1723,3.18,3.1819,3.1862,3.1858,3.1903,3.1864,3.186,3.1855,3.1852,3.1854,3.1909,3.1911,3.1912,3.1912,0,3.142,3.1425,3.1468,3.1513,3.1548,3.1584,3.1618,3.1641,3.1654,3.1688,3.1737,3.1767,3.1824,3.187,3.1913,3.1931,3.1923,3.1924,3.1936,3.1934,3.1926,3.1928,3.1799,3.1921,3.192,3.192,3.1919,3.1919,3.1496,3.1535,3.1569,3.1616,3.1642,3.1673,3.171,3.1728,3.1769,3.1817,3.1819,3.1871,3.1902,3.1959,3.198,3.2019,3.2005,3.2022,3.2026,3.203,3.2032,3.1921,3.2027,3.2027,3.2026,3.2026,3.2026,0,3.1603,3.1624,3.1667,3.1714,3.175,3.174,3.1776,3.1806,3.1853,3.1883,3.192,3.1974,3.2018,3.2039,3.2082,3.2109,3.2106,3.2119,3.2116,3.212,3.2043,3.2028,3.2121,3.2121,3.2121,3.2121,3.2121,3.2121,3.1663,3.1726,3.1734,3.1809,3.1829,3.188,3.1901,3.1929,3.1952,3.2013,3.2049,3.2063,3.2089,3.2133,3.2171,3.2176,3.2191,3.2206,3.2208,3.2136,3.2126,3.2117,3.2102,3.2209,3.2209,3.2282,3.2282,3.2283]}]]